DELTA 1 DEB, 10201

Orbit data source: Space-Track

DELTA 1 DEB, 10201 is space debris in LEO originally from a launch on Thu, 14 Jul 1977 UTC launched from the Air Force Eastern Test Range (AFETR). Debris objects in space refer to the collection of defunct objects orbiting the Earth. Examples of debris include non-operational satellites, rocket bodies, and fragments generated from explosions, collisions, or faulty payload assembly.

Loading next visibility...
Identifier
10201, 1977-065AE
Orbit
LEO
Country
Flag of USUS
Related business
Manufacturer
Unknown
Mission
Spacecraft
Bus & Motor
Unknown
Mass
Unknown
Launch date (UTC)
1977-07-14 (49 years ago)
Launch vehicle
Unknown
Launch site
Air Force Eastern Test Range (AFETR)
Object type
Payload
Rocket body
Debris
Shape & HBR
Unknown shape, 0.2 m
Radar Cross Section
Medium (>0.1 m² and <1 m²)

Expand to show TLE details & history
Last TLE update: 5 hours ago

TLE from 5 hours ago
0 DELTA 1 DEB
1 10201U 77065AE  26133.46238571  .00001728  00000-0  30621-3 0  9993
2 10201  29.0872 200.5823 0664399 206.4735 150.0381 13.75041169404089
Epoch: 2026-05-13T11:05Z
TLE epoch observation values (Epoch: 2026-05-13T11:05:50.125Z)
Latitude
-0.00002°
Longitude
162.90135°
Altitude
1,410.897 km
Speed
6.945 km/s
True Right ascension
13h 22m 19s
True Declination
0° 00' 00"
Sunlit
Object was in full shadow at epoch
Visualization orbit readout
Latitude
Unknown
Longitude
Unknown
Altitude
Unknown
Speed
Unknown
Apparent Right ascension
Unknown
Apparent Declination
Unknown
Sunlit
N/A
Visualization observer readout
Local Sidereal Time
00:16:25
Azimuth
Unknown
Elevation
Unknown
Doppler factor
Unknown
Orbital elements
Apogee altitude
1,474.657 km
Perigee altitude
496.188 km
Semi-major axis
7,363.559 km
Eccentricity
0.06644
Inclination
29.0872°
RAAN
200.5823°
Arg. of periapsis
206.4735°
True anomaly
153.58237°
Mean anomaly
150.0381°
Eccentric anomaly
151.83493°
Mean motion
3.43488 °/min
Orbital period
104.81 mins
BSTAR
0.00030621
Loading maneuver chart data...
Computing Atmospheric mass density...
Loading historical data...
Loading historical data...
Loading historical data...
Loading historical data...
Loading historical data...
Loading historical data...
Loading historical data...

Documentation

Showing up to 5 results
|